This is the latest recevied weather packets stored in our database for station/object N7MLR. If no packets are shown the sender has not sent any weather packets the latest 10 day(s).
| Time | Temp. | Humidity | Pressure | Rain* | Wind** | Luminosity | Snow |
|---|---|---|---|---|---|---|---|
| 1777988310 | 20.56° C | 95% | 1008.7 hPa | 0 mm | - | 29 W/m² | - |
| 1777988006 | 20.56° C | 95% | 1008.3 hPa | 0 mm | - | 35 W/m² | - |
| 1777987702 | 20.56° C | 95% | 1008.4 hPa | 0 mm | - | 23 W/m² | - |
| 1777987400 | 20.56° C | 95% | 1008.3 hPa | 0 mm | - | 23 W/m² | - |
| 1777987097 | 20.56° C | 95% | 1008.5 hPa | 0 mm | - | 20 W/m² | - |
| 1777986794 | 20.56° C | 94% | 1007.8 hPa | 0 mm | - | 21 W/m² | - |
| 1777986491 | 20.56° C | 94% | 1008 hPa | 0 mm | - | 12 W/m² | - |
| 1777986190 | 20.56° C | 94% | 1008.2 hPa | 0 mm | - | 16 W/m² | - |
| 1777985886 | 20.56° C | 94% | 1008 hPa | 0 mm | - | 13 W/m² | - |
| 1777985583 | 20.56° C | 94% | 1007.8 hPa | 0 mm | - | 14 W/m² | - |
| 1777985280 | 20.56° C | 94% | 1007.9 hPa | 0 mm | - | 12 W/m² | - |
| 1777984977 | 20.56° C | 93% | 1007.7 hPa | 0 mm | - | 13 W/m² | - |
| 1777984672 | 20.56° C | 93% | 1007.8 hPa | 0 mm | - | 13 W/m² | - |
| 1777984369 | 20.56° C | 94% | 1008 hPa | 0 mm | - | 10 W/m² | - |
| 1777984066 | 20.56° C | 94% | 1007.8 hPa | 0 mm | - | 13 W/m² | - |
| 1777983763 | 20.56° C | 94% | 1007.6 hPa | 0 mm | - | 11 W/m² | - |
| 1777983460 | 20.56° C | 94% | 1007.8 hPa | 0 mm | - | 9 W/m² | - |
| 1777983157 | 20.56° C | 94% | 1007.4 hPa | 0 mm | - | 6 W/m² | - |
| 1777982853 | 20.56° C | 94% | 1007.5 hPa | 0 mm | - | 5 W/m² | - |
| 1777982549 | 20.56° C | 94% | 1007.4 hPa | 0 mm | - | 3 W/m² | - |
| 1777982247 | 20.56° C | 94% | 1007.5 hPa | 0 mm | - | 0 W/m² | - |
| 1777981946 | 20.56° C | 94% | 1007.4 hPa | 0 mm | - | 0 W/m² | - |
| 1777981643 | 20.56° C | 94% | 1007.3 hPa | 0 mm | - | 0 W/m² | - |
| 1777981338 | 20.56° C | 95% | 1007.5 hPa | 0 mm | - | 0 W/m² | - |
| 1777981035 | 20.56° C | 95% | 1007.5 hPa | 0 mm | - | 0 W/m² | - |
* Rain latest hour (hover to see other rain measurements)
** Current wind speed in m/s (hover to see current wind gust speed)